Location: Newark
(50.2306°N, 14.0814°E)
Time: 14:48:44
(UTC+00:00)

ISS - Visible Passes

Search period start: 14 December 2019 00:00
Search period end: 24 December 2019 00:00
Orbit: 411 x 421 km, 51.6° (Epoch: 15 December)

Date Brightness Start Highest point End Pass type
(mag) Time Alt. Az. Time Alt. Az. Time Alt. Az.
14 Dec 0.2 15:51:23 10° SW 15:51:58 10° SW 15:52:34 10° SW visible
20 Dec -0.5 06:09:53 10° S 06:11:49 15° SE 06:13:45 10° ESE visible
22 Dec -1.6 06:08:11 10° SSW 06:11:07 30° SSE 06:14:04 10° E visible
23 Dec -1.1 05:20:10 10° SSW 05:22:43 20° SE 05:25:16 10° E visible
